Simultaneous Nadir Overpasses (SNOs) Predictions

Prediction of SNOs between AURA and NPP Satellite Orbit:

Table of predicted SNOs for the next 14.0 days since TLE Epoch: 4/13/2024
Index Date (AURA) Time (AURA) Lat,Lon (AURA) SZA (AURA ) Date (NPP) Time (NPP) Lat,Lon (NPP) SZA (NPP ) Distance(km) Time Diff (sec)
1 04/13/2024 05:11:09 80.49, 9.18 81.43 04/13/2024 05:10:37 80.48, 9.08 81.47 2.03 32
2 04/13/2024 06:00:31 -80.56, 177.63 98.73 04/13/2024 06:01:19 -80.56, 177.48 98.73 2.75 48
3 04/15/2024 18:56:06 -80.51, -16.78 99.56 04/15/2024 18:55:17 -80.51, -16.62 99.55 2.97 49
4 04/15/2024 19:45:28 80.56, 151.35 80.35 04/15/2024 19:46:00 80.55, 151.22 80.35 2.41 32
5 04/18/2024 08:41:03 80.47, -43.39 79.60 04/18/2024 08:39:59 80.48, -43.28 79.62 2.11 64
6 04/18/2024 09:30:24 -80.58, 125.38 100.61 04/18/2024 09:30:40 -80.58, 125.50 100.64 2.17 16
7 04/20/2024 23:15:19 80.57, 99.07 78.52 04/20/2024 23:15:21 80.57, 99.09 78.51 0.47 2
8 04/23/2024 13:00:15 -80.53, 72.46 102.29 04/23/2024 13:00:04 -80.53, 72.33 102.26 2.52 11
9 04/23/2024 13:49:35 80.63,-118.80 77.52 04/23/2024 13:50:44 80.62,-118.91 77.49 2.14 69
10 04/26/2024 02:45:07 80.52, 46.11 76.89 04/26/2024 02:44:43 80.52, 46.10 76.91 0.33 24



Historial Predications of SNOs between AURA and NPP
